Location: Malvern Link
(52.1333°N, 2.3000°W)
Time: 01:36:42
(UTC+00:00)

CUTE 1.7 + AOD 2 - Pass Details

Date: 26 June 2022
Orbit: 589 x 608 km, 97.7° (Epoch: 07 August)

Event Time Altitude Azimuth Distance (km) Brightness Sun altitude
Rises 02:47:17 0° 29° (NNE) 2,864 ? -7.2°
Reaches altitude 10° 02:50:31 10° 56° (NE) 1,949 ? -7.0°
Maximum altitude 02:52:41 14° 87° (E) 1,711 ? -6.8°
Drops below altitude 10° 02:54:50 10° 118° (ESE) 1,934 ? -6.6°
Sets 02:58:00 0° 145° (SE) 2,825 ? -6.3°
